#timestamp,LO_Frequency,Hit,StdDev 
1516618815.3,286047002.4,N
1516618835.2,286047000.2,N
1516618855.0,286046999.0,N
1516618855.9,286046999.0,N
1516618875.7,286046999.6,N
1516618895.6,286047001.0,N
1516618915.4,286047002.6,N
1516618935.3,286047001.5,N
1516618955.1,286047003.0,N
1516618956.0,286047003.0,N
1516618975.8,286047002.6,N
1516618995.7,286047000.3,N
1516619015.5,286047000.6,N
1516619035.3,286046998.4,N
1516619055.2,286046998.1,N
1516619075.0,286047000.4,N
1516619075.9,286047000.4,N
1516619095.8,286046999.0,N
1516619115.6,286046997.0,N
1516619135.4,286047002.4,N
1516619155.3,286047002.5,N
1516619175.1,286047003.0,N
1516619195.8,286047002.6,N
1516619215.7,286047000.0,N
1516619235.5,286047002.6,N
1516619255.4,286046998.7,N
1516619275.2,286046995.3,N
1516619295.0,286046997.4,N
1516619295.9,286046997.4,N
1516619315.8,286046998.0,N
1516619335.6,286046995.0,N
1516619355.4,286046997.1,N
1516619375.3,286046997.1,N
1516619395.1,286046995.3,N
1516619415.9,286046993.9,N
1516619435.7,286046995.4,N
1516619455.5,286046995.9,N
1516619475.4,286046995.6,N
1516619495.2,286046993.8,N
1516619515.0,286046994.3,N
1516619515.9,286046994.3,N
1516619535.8,286046993.6,N
1516619555.6,286046997.8,N
1516619575.5,286046995.0,N
1516619595.3,286046993.8,N
1516619615.1,286046996.2,N
1516619635.9,286046991.7,N
1516619655.7,286046990.5,Y
1516619675.5,286046997.7,P
1516619695.4,286046997.5,P
1516619715.2,286046996.4,P
1516619735.1,286046995.5,Y
1516619736.0,286046995.5,P
1516619755.8,286046997.9,N
1516619775.6,286046993.6,P
1516619795.5,286046991.9,Y
1516619815.3,286046997.2,P
1516619835.2,286046999.1,N
1516619855.9,286046995.1,P
1516619875.7,286046995.0,Y
1516619895.6,286046999.2,P
1516619915.4,286046996.9,N
1516619935.3,286046998.0,N
1516619955.1,286047002.6,N
1516619956.0,286047002.6,N
1516619975.8,286047004.4,N
1516619995.7,286047002.7,N
1516620015.5,286047003.3,N
1516620035.3,286047003.4,N
1516620055.2,286047004.2,N
1516620075.0,286047006.5,N
1516620075.9,286047006.5,N
1516620095.8,286047004.8,N
1516620115.6,286047005.2,N
1516620135.4,286047004.9,N
1516620155.3,286047003.1,N
1516620175.1,286047003.6,N
1516620195.8,286047005.4,N
1516620215.7,286047005.5,N
1516620235.5,286047001.3,N
1516620255.4,286046998.8,N
1516620275.2,286046997.1,N
1516620295.0,286046998.1,N
1516620295.9,286046998.1,N
1516620315.8,286047001.2,N
1516620335.6,286046999.3,N
1516620355.4,286047003.6,N
1516620375.3,286047004.2,N
1516620395.1,286047003.6,N
1516620415.9,286047005.6,N
1516620435.7,286047005.8,N
1516620455.5,286047006.2,N
1516620475.4,286047005.4,N
1516620495.2,286047003.2,N
1516620515.0,286047004.2,N
1516620515.9,286047004.2,N
1516620535.8,286046998.1,N
1516620555.6,286047001.7,N
1516620575.5,286047002.2,N
1516620595.3,286047002.9,N
1516620615.1,286047000.3,N
1516620635.9,286047002.6,N
1516620655.7,286047002.2,N
1516620675.5,286047001.7,N
1516620695.4,286047004.9,N
1516620715.2,286047001.8,N
1516620735.1,286047009.5,Y
1516620736.0,286047009.5,P
1516620755.8,286047007.0,N
1516620775.6,286047004.5,N
1516620795.5,286047007.6,N
1516620815.3,286047005.4,N
1516620835.1,286047010.5,Y
1516620855.9,286047003.5,P
1516620875.7,286046999.6,N
1516620895.6,286046996.0,N
1516620915.4,286046993.4,N
1516620935.2,286046994.2,N
1516620955.1,286046991.9,N
1516620956.0,286046991.9,N
1516620975.8,286046994.0,N
1516620995.6,286046993.7,N
1516621015.5,286046995.7,N
1516621035.3,286047000.7,N
1516621055.2,286046995.8,N
1516621075.9,286046993.6,N
1516621095.7,286046996.2,N
1516621115.6,286046995.0,N
1516621135.4,286046994.0,N
1516621155.2,286046994.0,N
1516621175.1,286046992.3,N
1516621176.0,286046992.3,N
1516621195.8,286046993.0,N
1516621215.7,286046989.1,N
1516621235.5,286046990.6,N
1516621255.3,286046991.2,N
1516621275.2,286046989.7,N
1516621295.0,286046989.0,N
1516621295.9,286046989.0,N
1516621315.7,286046991.9,N
1516621335.6,286046993.0,N
1516621355.4,286046990.6,N
1516621375.3,286046993.1,N
1516621395.1,286046989.9,Y
1516621396.0,286046989.9,P
1516621415.8,286046994.5,N
1516621435.7,286046993.3,P
1516621455.5,286046997.4,N
1516621475.3,286046997.1,N
1516621495.2,286046996.8,N
1516621515.0,286046996.6,N
1516621515.9,286046996.6,N
1516621535.8,286047001.2,N
1516621555.6,286046998.3,N
1516621575.4,286046997.3,N
1516621595.3,286046999.5,N
1516621615.1,286046997.0,N
1516621635.8,286046995.0,N
1516621655.7,286046998.9,N
1516621675.5,286046999.6,N
1516621695.4,286047001.2,N
1516621715.2,286046997.3,N
1516621735.0,286046997.5,N
1516621735.9,286046997.5,N
1516621755.8,286046993.5,N
1516621775.6,286046991.9,Y
1516621795.4,286046994.9,P
1516621815.3,286046997.8,N
1516621835.1,286046997.0,N
1516621855.9,286047000.5,N
1516621875.7,286047011.9,Y
1516621895.5,286047002.0,P
1516621915.4,286047003.3,N
1516621935.2,286047001.9,N
1516621955.0,286047003.4,N
1516621956.0,286047003.4,N
1516621975.8,286047004.3,N
1516621995.6,286047002.2,N
1516622015.5,286047002.9,N
1516622035.3,286047006.0,Y
1516622055.1,286046999.9,P
1516622075.9,286047001.9,N
1516622095.7,286047004.4,P
1516622115.6,286047002.1,N
1516622135.4,286047004.8,Y
1516622155.2,286047002.5,P
1516622175.1,286047002.9,P
1516622176.0,286047002.9,P
1516622195.8,286047003.2,Y
1516622215.7,286047003.9,P
1516622235.5,286047002.9,P
1516622255.3,286047002.8,P
1516622275.2,286046999.0,N
1516622295.0,286046995.9,N
1516622295.9,286046995.9,N
1516622315.8,286046995.3,N
1516622335.6,286046995.2,N
1516622355.4,286046993.6,N
1516622375.3,286046994.1,N
1516622395.1,286046994.9,N
